Location: Carrizalito
(10.3833°N, 67.0217°W)
Time: 02:47:39
(UTC+00:00)

Meteor 1-11 Rocket - Pass Details

Date: 06 July 2022
Orbit: 830 x 916 km, 81.2° (Epoch: 13 August)

Event Time Altitude Azimuth Distance (km) Brightness Sun altitude
Exits shadow 08:58:00 27° 240° (WSW) 1,681 4.6 -17.2°
Maximum altitude 09:00:02 34° 277° (W) 1,465 4.5 -16.8°
Drops below altitude 10° 09:05:20 10° 340° (NNW) 2,591 6.3 -15.6°
Sets 09:08:01 0° 350° (N) 3,524 7.1 -15.0°
